This demonstration page uses our WeatherBlox Daily Observations layout. Learn more.

Left ArrowRight Arrow

34.02893, -84.19858

Hourly Observations for October 11, 2019

Temp ( °F °C ) Dew Point ( °F °C ) Humidity (%) Winds ( mph kmh ) Pressure ( in mb ) Visibility ( mi km ) Precip ( " mm )
12:53 am 00:53 Clear 61 16.1 57 13.9 87 87 Calm 30.12 1020 10 16 0.00 0.00
1:53 am 01:53 Clear 59 15 56 13.3 90 90 E 3 6 30.11 1020 10 16 0.00 0.00
2:53 am 02:53 Clear 60 15.6 56 13.3 86 86 Calm 30.10 1019 10 16 0.00 0.00
3:53 am 03:53 Clear 60 15.6 55 12.8 84 84 Calm 30.09 1019 10 16 0.00 0.00
4:53 am 04:53 Clear 57 13.9 54 12.2 90 90 Calm 30.09 1019 10 16 0.00 0.00
5:53 am 05:53 Clear 56 13.3 54 12.2 93 93 Calm 30.11 1020 10 16 0.00 0.00
6:53 am 06:53 Clear 56 13.3 54 12.2 93 93 Calm 30.13 1020 10 16 0.00 0.00
7:53 am 07:53 Sunny 57 13.9 54 12.2 90 90 E 3 6 30.14 1021 10 16 0.00 0.00
8:53 am 08:53 Sunny 61 16.1 56 13.3 84 84 Calm 30.16 1021 10 16 0.00 0.00
9:53 am 09:53 Sunny 65 18.3 57 13.9 76 76 Calm 30.16 1022 10 16 0.00 0.00
10:53 am 10:53 Sunny 69 20.6 59 15 70 70 Calm 30.16 1021 10 16 0.00 0.00
11:53 am 11:53 Mostly Sunny 72 22.2 56 13.3 57 57 VRB 3 6 30.15 1021 10 16 0.00 0.00
12:53 pm 12:53 Partly Cloudy 72 22.2 55 12.8 55 55 NNE 3 6 30.13 1020 10 16 0.00 0.00
1:53 pm 13:53 Mostly Sunny 77 25 54 12.2 45 45 ESE 6 9 30.10 1019 10 16 0.00 0.00
2:53 pm 14:53 Sunny 77 25 53 11.7 43 43 ESE 7 11 30.06 1018 10 16 0.00 0.00
3:53 pm 15:53 Sunny 78 25.6 53 11.7 42 42 VRB 5 7 30.04 1017 10 16 0.00 0.00
4:53 pm 16:53 Sunny 78 25.6 51 10.6 39 39 VRB 3 6 30.02 1017 10 16 0.00 0.00
5:53 pm 17:53 Sunny 77 25 51 10.6 40 40 SE 3 6 30.03 1017 10 16 0.00 0.00
6:53 pm 18:53 Sunny 73 22.8 54 12.2 51 51 Calm 30.04 1017 10 16 0.00 0.00
7:53 pm 19:53 Clear 68 20 55 12.8 63 63 Calm 30.04 1017 10 16 0.00 0.00
8:53 pm 20:53 Clear 65 18.3 55 12.8 70 70 Calm 30.06 1018 10 16 0.00 0.00
9:53 pm 21:53 Clear 65 18.3 53 11.7 66 66 Calm 30.06 1018 10 16 0.00 0.00
10:53 pm 22:53 Clear 61 16.1 54 12.2 78 78 Calm 30.05 1018 10 16 0.00 0.00
11:53 pm 23:53 Clear 62 16.7 54 12.2 75 75 Calm 30.04 1017 10 16 0.00 0.00

Powered by AerisWeather